Theta_e
323 324 324 325 325 325 325 324 323 324 324 324 325 326 327 329 329 323 315 323 326 333 329 319 318 315 314 311 311 309 297 296 299 300 301 306 304 307 309 311 314 317 316 321 326
323 324 324 324 324 325 325 325 324 324 324 323 325 325 327 328 320 317 326 332 333 332 321 315 312 312 307 308 309 302 296 297 302 303 302 305 305 306 305 305 307 311 321 324 325
322 323 323 323 324 324 325 324 324 324 324 324 324 324 326 324 307 309 329 331 333 330 322 318 315 310 305 306 305 303 298 300 302 304 306 305 305 307 305 304 307 309 311 323 323
321 322 322 323 323 323 324 324 324 324 324 324 323 324 324 318 290 311 330 332 333 326 320 315 311 305 301 300 305 301 304 303 306 306 306 304 306 305 305 307 308 310 310 321 322
319 320 321 322 322 323 323 323 323 323 324 324 323 323 318 307 305 319 328 330 327 322 316 312 307 304 299 301 302 300 302 304 305 304 304 305 304 304 305 309 309 309 309 313 316
318 319 319 321 322 322 323 323 323 323 323 324 323 323 309 298 313 318 324 324 321 318 314 312 308 307 302 301 299 301 302 302 303 303 304 302 301 303 304 306 307 307 307 306 307
316 318 318 319 320 322 322 323 322 322 323 323 323 316 306 301 313 312 317 320 320 318 313 314 312 307 305 300 304 302 298 299 300 302 302 302 298 299 304 304 304 303 303 304 305
315 316 317 318 319 320 321 322 321 321 323 323 321 309 298 309 310 310 312 320 322 320 318 317 314 308 305 303 301 297 296 290 296 300 302 301 291 299 301 302 302 302 303 304 306
314 314 316 317 318 319 320 321 320 321 322 320 309 303 296 312 304 308 312 314 317 317 319 317 313 306 304 298 293 293 286 289 292 299 299 298 293 299 301 301 300 301 302 303 305
313 314 315 316 317 317 318 319 319 319 316 312 310 299 301 298 305 307 310 316 311 310 311 310 307 299 297 293 283 287 287 289 289 294 296 294 293 298 299 299 300 300 301 302 303
312 312 314 315 317 317 315 309 304 303 306 300 300 298 298 304 308 304 311 310 309 305 299 304 296 292 295 295 292 290 288 288 291 296 294 292 292 295 298 298 298 299 300 302 302
311 312 313 315 316 316 311 302 304 304 298 303 303 299 302 306 299 302 313 303 302 297 299 298 293 297 298 296 294 291 289 287 292 296 295 293 293 296 297 298 300 300 301 301 301
310 311 312 312 314 312 306 304 309 308 297 298 301 299 300 303 297 299 306 303 298 296 296 291 292 298 296 293 292 290 289 289 289 292 294 292 290 291 294 297 299 300 300 300 299
309 310 311 312 303 307 302 306 309 309 289 291 295 298 299 301 295 304 307 303 298 294 295 294 296 294 293 292 293 288 293 292 290 289 285 290 280 288 291 293 295 297 297 297 297
308 309 310 309 303 302 302 308 307 303 277 292 295 304 300 296 296 298 305 300 293 292 294 289 291 292 291 292 295 290 295 292 290 287 288 289 285 285 289 290 293 296 296 296 297
308 309 309 306 303 303 307 309 303 284 276 288 294 293 293 294 293 299 299 301 297 293 290 289 292 293 292 294 295 294 292 290 291 290 282 285 284 282 285 290 291 294 295 296 295
308 308 305 305 296 304 308 302 284 277 287 285 287 292 291 290 292 294 293 292 289 286 285 287 288 290 294 290 293 293 289 280 280 279 276 282 283 285 288 291 293 293 294 294 294
307 307 305 302 304 305 303 289 278 283 284 291 290 290 287 291 291 291 291 289 293 286 284 283 281 290 292 291 289 290 289 278 271 273 276 282 280 284 291 293 294 294 293 293 292
306 296 296 301 304 302 293 281 281 283 286 286 289 285 286 290 289 290 289 288 290 290 282 282 283 290 291 292 293 288 286 288 281 272 274 278 282 286 289 290 292 290 292 291 290
293 292 293 302 303 296 283 281 283 287 288 289 283 287 282 286 286 288 287 291 289 292 287 285 280 286 291 292 291 289 291 283 283 275 274 277 278 280 284 285 287 289 291 290 289
293 286 291 300 299 287 278 279 283 289 290 286 283 284 286 285 287 285 287 287 292 291 291 286 283 282 288 286 287 287 286 285 285 280 273 270 276 284 286 287 287 289 290 287 286
290 280 292 298 283 284 281 284 288 287 291 289 286 284 284 287 285 285 283 288 293 293 287 287 284 279 283 285 287 291 287 286 280 276 278 278 278 286 287 288 288 289 286 285 285
285 283 295 293 277 278 283 283 287 286 289 288 287 287 285 285 283 286 286 289 291 291 289 290 284 277 278 281 282 285 286 288 286 282 278 276 278 286 286 286 288 287 285 284 282
286 278 282 289 282 281 279 281 284 289 289 290 287 289 286 284 285 284 284 287 290 292 295 294 284 282 277 279 282 281 284 286 285 281 281 280 282 285 284 286 286 285 283 282 280
284 282 279 276 281 282 283 283 281 284 289 288 286 286 286 281 282 282 286 285 287 293 292 290 282 284 284 281 281 282 283 285 284 285 281 283 283 287 287 285 286 284 281 280 279
284 283 285 283 283 282 285 282 281 284 286 285 283 286 285 283 285 283 285 284 284 287 289 290 282 283 281 284 280 280 282 283 285 286 285 286 284 287 283 282 282 282 280 279 277
289 288 285 285 283 280 281 284 285 286 286 288 286 285 284 286 289 289 290 290 288 286 287 287 285 281 277 282 280 277 282 283 283 286 286 282 287 285 281 283 282 280 279 278 276
Wind_Speed
11 15 16 15 12 12 12 11 9 7 5 4 3 1 2 4 3 1 4 1 0 6 4 4 6 7 5 4 4 2 5 2 5 5 2 3 2 3 1 2 3 2 1 1 1
10 8 15 16 14 13 13 11 10 9 7 5 3 2 1 2 2 6 4 6 3 6 4 5 4 6 4 4 4 5 4 6 2 3 3 1 3 2 2 3 3 2 0 3 3
11 10 8 13 15 15 14 13 11 9 8 7 6 4 3 1 3 6 8 15 9 2 2 2 2 3 3 2 3 1 4 4 2 2 2 1 2 2 2 2 1 2 1 1 2
12 12 12 10 11 15 15 14 12 11 10 8 8 6 5 1 7 0 6 9 9 5 1 3 3 4 4 4 1 4 2 3 3 4 2 0 1 1 2 3 2 3 1 0 2
12 12 13 12 11 12 15 15 14 12 10 9 8 7 3 4 6 4 6 3 6 7 6 5 4 5 6 4 3 4 3 2 2 1 2 1 4 4 5 7 2 4 4 4 4
11 10 14 13 14 12 11 15 15 13 12 10 8 5 2 7 2 5 2 5 4 6 4 5 7 4 5 3 4 3 3 1 2 2 3 3 3 4 3 1 3 3 5 5 6
5 10 12 14 15 13 12 12 16 15 13 11 10 4 3 11 3 5 5 3 5 3 6 2 6 4 6 3 1 4 2 1 4 4 5 4 6 5 4 2 1 4 4 6 7
6 5 13 14 15 13 12 11 13 15 13 11 10 3 5 4 3 5 4 3 4 3 4 4 4 6 4 4 4 3 4 3 3 4 4 7 8 4 3 4 5 8 7 6 7
7 6 8 16 15 15 12 11 11 14 12 11 5 5 5 1 3 5 3 4 6 3 4 4 3 4 2 6 3 2 3 5 4 6 3 5 4 3 5 3 6 7 8 8 12
11 10 9 13 16 15 13 11 8 10 6 6 3 3 4 6 3 5 4 3 5 4 4 5 4 4 4 5 7 7 4 1 4 3 4 4 7 11 7 2 8 6 8 11 13
14 10 11 10 15 16 12 7 6 5 7 4 8 4 3 3 3 2 5 5 5 3 6 4 5 11 9 6 5 6 3 5 3 5 2 6 6 9 8 4 7 9 10 12 11
16 15 12 10 14 17 10 8 14 1 8 7 10 3 3 5 4 3 8 6 6 8 6 3 13 8 6 5 5 4 5 4 4 5 1 7 12 7 8 8 10 10 13 10 5
20 15 15 11 10 13 13 18 1 3 4 6 6 9 5 5 6 10 12 5 4 9 12 6 5 9 6 4 6 4 6 5 6 3 4 6 13 6 3 4 5 8 8 5 5
21 18 13 12 3 11 16 8 5 3 3 7 9 7 6 5 3 5 10 6 4 12 8 7 5 9 4 10 9 9 6 5 3 3 6 3 8 3 4 6 6 11 5 5 5
20 19 17 15 0 11 8 9 7 6 12 14 11 6 10 12 11 6 2 5 7 7 7 6 8 11 9 7 9 5 7 7 5 3 4 9 7 6 6 4 9 7 4 3 4
20 18 19 12 5 3 13 13 5 9 13 10 10 17 14 8 3 5 6 6 1 4 2 4 1 5 8 4 7 8 6 4 2 3 8 9 8 4 6 10 5 6 6 6 5
20 18 14 6 7 7 7 11 10 14 9 9 9 15 24 12 9 8 17 16 11 9 12 3 4 2 4 6 3 6 8 2 4 7 7 2 8 9 3 6 7 9 6 6 6
19 14 12 8 9 5 10 13 15 10 9 6 11 17 20 14 11 9 18 17 18 3 6 10 6 12 6 7 7 14 11 6 8 6 4 2 10 7 12 5 4 3 8 7 7
16 2 3 5 10 8 7 16 12 14 12 14 14 13 12 14 10 12 17 22 19 17 8 10 8 1 2 5 12 6 15 7 4 3 3 6 7 8 8 11 7 6 7 7 6
5 4 6 7 9 6 6 7 5 3 10 14 13 13 13 21 13 19 16 17 10 19 2 6 2 2 9 3 2 7 9 4 4 6 8 5 7 9 3 4 7 8 8 6 5
5 4 3 10 7 3 4 6 2 3 7 10 9 8 12 12 18 16 13 4 19 20 12 6 3 1 5 10 17 7 8 4 5 6 7 3 8 8 15 10 12 9 7 7 6
4 4 1 10 8 4 5 7 2 8 2 5 4 6 10 17 13 15 14 13 15 17 19 8 4 5 10 1 1 16 10 11 8 5 4 3 11 2 6 8 12 9 9 7 6
5 3 1 7 8 10 1 4 5 7 11 6 3 1 5 11 11 9 11 8 9 15 16 13 6 3 2 2 2 7 9 14 8 3 10 9 9 3 4 8 6 12 9 7 6
4 4 3 8 4 15 5 5 6 8 5 6 7 3 5 7 1 12 8 3 9 14 11 18 6 11 18 7 9 7 11 15 18 11 17 13 17 11 7 10 8 8 8 8 6
3 4 6 9 9 13 16 9 18 9 5 4 3 7 8 5 6 5 10 4 2 10 11 12 9 15 17 5 6 10 14 18 19 26 16 22 20 25 14 11 15 9 8 9 8
4 2 3 3 17 20 12 17 24 7 10 12 7 10 8 9 11 13 14 7 8 5 13 7 8 8 15 15 9 7 7 14 24 23 21 26 20 6 3 7 9 14 13 10 8
2 3 4 3 14 16 14 6 19 12 3 4 8 7 4 8 10 4 8 10 10 13 15 10 8 7 12 7 6 11 25 20 13 21 20 20 30 7 7 11 15 14 12 10 8
Wind_Direction
226 219 215 208 207 196 194 197 196 207 215 241 231 291 320 346 314 288 280 215 119 346 357 334 15 356 26 54 44 114 66 134 182 159 176 349 70 7 333 59 63 34 76 230 104
222 230 215 215 204 197 197 196 200 196 199 211 225 238 289 303 4 260 235 256 276 7 42 51 20 8 44 21 21 73 95 201 186 174 137 78 49 344 83 29 24 78 122 32 146
226 210 211 214 211 201 193 196 194 195 193 188 204 220 225 199 12 251 229 224 228 70 25 97 103 68 68 42 15 128 167 175 187 150 107 84 30 353 70 40 180 154 8 59 187
228 215 209 199 213 207 199 192 191 190 193 192 190 206 227 147 221 81 323 260 233 155 119 96 77 93 123 153 143 124 214 172 150 124 97 270 286 321 178 201 71 131 353 260 237
235 225 215 200 208 207 206 195 186 189 193 190 186 195 180 203 244 333 329 19 133 132 164 143 132 130 166 162 128 141 201 164 349 342 215 219 227 210 228 262 66 303 321 360 327
232 236 221 207 204 202 206 203 183 185 193 181 184 169 223 204 294 342 89 79 131 124 148 143 171 164 120 141 157 142 145 114 2 317 291 240 258 148 257 45 51 14 347 331 311
227 226 225 216 210 200 204 204 193 183 185 184 176 121 211 221 151 21 3 142 159 174 145 158 145 128 135 135 124 106 138 56 210 212 240 158 296 224 231 28 333 2 320 308 295
233 241 222 212 214 206 198 192 202 181 178 179 162 108 236 242 248 297 314 113 101 58 107 141 98 105 112 123 48 116 77 114 267 162 267 125 261 276 133 120 2 329 312 311 292
216 220 238 214 206 204 192 185 196 176 174 150 109 131 240 6 176 210 180 149 102 36 59 106 124 135 126 123 66 338 227 184 301 211 165 167 265 233 154 37 302 283 299 300 291
200 214 219 223 202 203 185 177 196 149 145 73 62 109 246 215 199 158 176 167 110 115 91 167 186 173 138 147 199 195 208 231 195 182 174 217 244 275 276 233 266 277 273 269 272
218 203 218 216 208 189 174 122 140 193 201 197 149 204 108 152 129 145 140 104 105 138 167 197 187 204 188 180 152 150 150 207 274 256 297 240 248 259 278 206 257 264 262 269 277
216 212 200 199 221 195 165 196 196 137 162 184 175 95 137 167 114 153 138 151 169 186 131 165 217 184 170 155 176 160 160 208 284 284 189 297 289 248 250 250 233 243 265 271 298
217 211 201 176 231 202 190 198 237 85 147 178 151 195 170 159 182 182 165 158 162 180 187 198 174 159 158 148 170 194 203 198 230 350 297 317 299 279 299 227 233 248 251 279 275
210 209 216 175 251 177 202 163 107 106 253 175 179 212 144 143 238 162 170 139 200 199 149 234 203 160 173 202 169 218 180 158 175 117 264 99 286 236 238 258 251 263 247 298 9
208 202 202 172 49 183 150 132 121 75 233 168 162 159 149 177 143 222 164 63 172 168 160 206 185 168 189 185 178 211 155 178 161 171 262 238 281 278 120 224 247 262 288 50 56
201 201 195 197 193 306 143 142 108 184 214 171 149 166 155 183 141 111 130 70 119 137 27 205 256 169 169 140 159 143 92 50 108 138 247 207 194 230 187 210 247 249 141 104 67
196 190 194 130 200 206 198 162 202 205 146 171 171 173 175 168 148 172 175 180 173 169 204 133 197 183 124 111 85 163 143 206 192 204 230 238 193 239 207 186 206 248 160 115 80
197 181 191 186 167 158 201 192 215 156 175 147 155 180 186 150 186 177 168 195 208 167 158 193 202 180 187 188 178 195 190 168 192 193 217 125 227 247 208 257 221 136 120 111 96
175 130 171 172 183 171 219 205 217 173 149 156 146 173 182 178 171 172 188 198 197 191 172 189 229 110 167 158 154 177 212 183 86 59 66 221 281 273 216 237 204 150 141 129 108
113 125 203 148 142 178 234 251 180 176 124 156 167 175 176 183 168 184 181 196 189 194 124 207 140 210 190 132 101 172 150 166 195 206 228 236 248 220 255 106 139 177 165 137 113
127 172 232 146 148 227 214 201 174 251 140 160 149 140 191 175 191 187 186 194 187 186 177 151 145 88 124 204 186 170 196 201 155 179 182 240 252 205 218 198 177 187 156 142 130
112 184 284 132 185 234 202 138 326 184 166 114 96 116 166 173 180 197 193 204 199 167 193 173 152 181 203 250 264 221 217 191 192 218 233 227 253 173 208 192 172 160 147 143 134
124 125 161 149 204 214 81 223 191 211 169 124 140 165 157 161 174 179 202 188 165 173 180 170 194 151 305 333 1 204 207 207 206 87 199 210 259 7 148 143 156 154 157 145 130
119 151 273 197 199 194 187 236 193 191 164 142 136 147 133 144 52 180 184 150 169 192 167 165 177 217 225 226 151 202 201 201 199 219 235 223 246 250 182 177 177 168 160 151 143
140 220 188 189 209 195 182 204 220 185 152 155 89 168 157 142 157 171 187 126 187 190 177 172 223 218 241 216 194 210 206 200 206 220 218 242 232 243 215 191 194 165 163 162 160
145 202 219 186 167 197 164 215 200 260 160 181 141 188 183 151 180 188 173 167 178 195 181 181 236 184 241 227 205 223 217 210 213 226 232 242 251 237 94 108 157 182 173 169 163
197 153 251 160 172 174 197 153 188 153 340 147 124 133 185 213 178 193 178 167 164 169 191 172 200 171 235 206 177 234 230 226 214 223 218 227 240 143 200 192 183 178 174 162 156